Weather in Birmingham

United Kingdom     52°29′41″N   1°51′05″W
temp.,
°C
wind,
m/s
gust,
m/s
humid.,
%
clouds,
%
prec.,
mm/h
press.,
hPa
HPBL,
m
22 october, fri
fri2201:00+8w5117311 0.0 1018869
04:00+7w512757 0.0 1018996
07:00+9w61365100 0.0 10171483
10:00+10w51172100 0.0 1019988
13:00+12wnw5963100 0.1 10201143
16:00+12wnw4861100 0.1 10211254
19:00+11wnw37727 0.1 1023602
22:00+10w257298 0.1 1024246
23 october, sat
sat2301:00+10wsw257486 0.1 1024234
04:00+8sw26825 0.0 1024203
07:00+8ssw267930 0.0 1024209
10:00+9ssw3873100 0.0 1024376
13:00+12ssw5857100 0.0 10231130
16:00+12ssw5958100 0.0 10221269
19:00+11ssw51058100 0.0 10211236
22:00+11s51269100 0.0 10211224
24 october, sun
sun2401:00+11s51263100 0.0 10191449
04:00+11s61266100 0.0 10171133
07:00+11s61372100 0.0 1016872
10:00+11s61372100 0.2 1016812
13:00+14ssw6964100 0.2 1015964
16:00+13ssw51176100 0.1 1014909
19:00+12ssw4108789 0.5 1014736
22:00+11sw4109154 0.0 1015485
25 october, mon
mon2501:00+10sw411915 0.0 1014438
04:00+10sw4109390 0.0 1014406
07:00+10sw4119446 0.0 1015525
10:00+11sw3977100 0.0 1016512
13:00+14wsw59585 0.0 10161230
16:00+14sw4860100 0.1 10161257
19:00+12sw3875100 0.1 1017775
22:00+11ssw41084100 0.0 1018588
26 october, tue
tue2601:00+11ssw51290100 0.9 1016797
04:00+13sw61489100 0.6 1015949
07:00+14wsw61491100 1.0 1016829
10:00+14wsw51186100 0.1 1017967
13:00+16wsw51178100 0.1 1018979
16:00+17sw51273100 0.0 1017983
19:00+14sw51384100 0.0 1018690
22:00+13ssw51489100 0.0 1018675